Home > Weather > Victoria > Past weeks

Flag for Seychelles Weather for the Past 2 Weeks in Victoria, Seychelles

Now
68 °F

Mild.


Feels Like: 68 °F
Forecast: 78 / 83 °F
Wind: N/A

Location: National Airport

Current Time: Feb 8, 2016 at 10:00:36 PM

Latest Report: Feb 8, 2016 at 9:00 PM


Visibility: N/A

Pressure: N/A

Humidity: 38%

Dew point: 41 °F

Location of VictoriaLocation

Historic Weather in Victoria — Graph

°F

Victoria Temperature Yesterday

Maximum temperature yesterday: 86 °F (at 10:00 AM)
Minimum temperature yesterday: 82 °F (at 1:00 AM)
Average temperature yesterday: 84 °F

High & Low Weather Summary for the Past Weeks

 TemperatureHumidityPressure
High90 °F (Feb 3, 12:00 PM)94% (Jan 25, 12:00 AM)29.95 "Hg (Jan 25, 12:00 AM)
Low68 °F (Feb 8, 9:00 PM)38% (Feb 8, 9:00 PM)29.77 "Hg (Jan 31, 4:00 PM)
Average83 °F80%29.86 "Hg
* Reported Jan 24 9:00 PM — Feb 8 9:00 PM, Victoria, Weather by CustomWeather, © 2016

Note: Actual official high and low records may vary slightly from our data, if they occured in-between our weather recording intervals... More about our weather records

Advertising

Victoria Weather History for the Previous 24 Hours

 ConditionsComfort  
Time TempWeatherWind HumidityBarometerVisibility
9:00 PM
Mon, Feb 8
68 °FMild.N/A38%N/AN/A
8:00 PM84 °FPassing clouds.9 mph79%29.86 "HgN/A
7:00 PM84 °FPassing clouds.8 mph84%29.83 "HgN/A
6:00 PM86 °FPartly sunny.7 mph75%29.80 "HgN/A
5:00 PM86 °FScattered clouds.8 mph75%29.80 "HgN/A
4:00 PM86 °FScattered clouds.8 mph75%29.77 "HgN/A
3:00 PM86 °FPartly sunny.9 mph75%29.80 "HgN/A
2:00 PM88 °FPartly sunny.8 mph75%29.80 "HgN/A
1:00 PM86 °FScattered clouds.8 mph75%29.83 "HgN/A
12:00 PM88 °FScattered clouds.8 mph75%29.83 "HgN/A
11:00 AM86 °FScattered clouds.8 mph79%29.86 "HgN/A
10:00 AM86 °FScattered clouds.7 mph75%29.89 "HgN/A
9:00 AM86 °FScattered clouds.9 mph75%29.89 "HgN/A
8:00 AM86 °FScattered clouds.7 mph79%29.86 "HgN/A
7:00 AM82 °FPartly sunny.9 mph84%29.83 "HgN/A
6:00 AM82 °FPassing clouds.7 mph84%29.83 "HgN/A
5:00 AM82 °FPassing clouds.8 mph84%29.80 "HgN/A
4:00 AM82 °FPassing clouds.12 mph84%29.80 "HgN/A
3:00 AM82 °FPassing clouds.8 mph84%29.80 "HgN/A
1:00 AM84 °FPassing clouds.9 mph79%29.83 "HgN/A
12:00 AM84 °FPassing clouds.9 mph79%29.86 "HgN/A
11:00 PM
Sun, Feb 7
84 °FPassing clouds.8 mph79%29.89 "HgN/A
10:00 PM84 °FPassing clouds.13 mph79%29.89 "HgN/A
Weather by CustomWeather, © 2016

See weather overviewHow to use our weather pages